Temperature
10 10 10 11 11 11 11 12 12 13 14 14 13 13 13 13 14 14 14 14 15 15 15 16 16 16 16 16 16 16 16 16 16 16 16 16 16 16
9 9 9 10 10 11 11 11 11 12 13 13 13 13 13 13 13 14 14 14 14 15 15 15 16 16 16 16 16 16 16 16 16 16 16 16 16 16
9 9 9 9 9 10 10 11 11 11 12 12 13 12 12 13 13 13 14 14 14 14 15 15 15 16 16 16 16 16 16 16 16 16 16 16 16 16
9 9 9 9 9 9 10 10 11 11 11 11 12 12 12 12 13 13 13 14 14 14 15 15 15 15 16 16 16 16 16 16 16 16 16 16 16 16
8 8 8 8 8 9 9 9 10 10 11 11 12 12 12 12 12 13 13 14 14 14 14 15 15 15 15 16 16 16 16 16 16 16 16 16 16 16
8 8 8 8 8 8 9 9 9 10 10 11 11 12 12 12 12 12 13 13 13 14 14 14 15 15 15 15 15 15 15 15 15 15 16 16 16 16
8 8 8 8 8 8 8 9 9 9 10 11 11 12 12 12 12 12 12 12 13 13 14 14 14 14 15 15 15 15 15 15 15 15 15 16 16 16
8 8 8 8 8 8 8 8 8 8 9 10 11 11 11 12 12 12 12 12 12 13 13 14 14 14 14 14 15 15 15 15 15 15 15 15 15 16
8 8 8 9 8 8 8 8 8 8 8 8 9 10 11 11 11 11 12 12 12 13 13 13 13 13 14 14 14 15 15 15 15 15 15 15 15 15
8 8 8 8 8 8 7 8 8 8 8 8 8 9 9 10 10 10 11 11 12 12 12 12 13 13 13 13 14 14 15 15 15 15 15 15 15 15
8 8 8 7 7 7 7 7 7 8 8 8 8 8 9 9 10 10 11 11 11 11 12 12 12 12 12 13 13 13 14 14 14 15 15 15 15 15
8 8 7 7 7 7 6 6 7 7 8 8 8 8 8 9 9 10 10 11 11 11 11 12 12 12 12 12 12 12 13 13 14 14 14 14 14 14
8 8 8 7 7 7 7 6 6 7 7 7 8 8 8 8 9 9 10 10 11 11 11 11 11 11 11 11 11 12 12 12 13 13 13 13 14 14
7 7 7 7 7 7 6 7 7 6 6 7 8 8 9 9 9 10 10 10 10 11 11 11 11 11 12 11 11 11 11 12 12 12 12 13 13 13
7 7 7 7 7 7 7 6 6 6 6 7 7 8 9 9 9 9 10 10 10 10 10 11 11 11 11 11 11 11 11 11 11 12 12 12 12 12
7 7 7 7 7 7 6 6 6 6 6 7 7 8 9 9 9 9 9 9 10 10 10 10 10 11 11 11 11 11 11 11 11 11 11 11 12 12
6 7 7 7 7 7 7 6 6 6 6 7 7 8 8 8 9 9 9 9 9 9 10 10 10 10 10 11 11 11 11 11 11 11 11 11 11 11
7 6 7 7 7 7 7 7 7 7 7 7 7 7 8 8 8 9 9 9 9 9 9 10 10 10 10 10 10 10 11 11 11 11 11 11 11 11
7 7 7 7 7 7 7 7 7 7 7 7 7 7 8 8 8 9 9 9 9 9 9 9 9 9 9 9 10 10 10 11 11 11 11 11 11 11
7 7 7 7 7 7 7 7 7 7 7 7 7 7 7 8 8 8 9 9 9 9 9 9 9 9 10 10 10 10 10 10 11 11 10 10 10 10
7 7 7 7 7 7 7 7 7 7 7 7 7 7 7 8 8 8 9 9 9 9 9 9 9 9 9 9 9 10 10 10 10 11 10 10 10 10
7 7 7 7 7 7 7 7 7 7 7 7 7 7 7 8 8 8 8 9 9 9 9 9 9 9 9 9 9 9 10 10 9 9 10 10 10 10
7 7 7 7 7 7 7 7 7 7 7 7 7 8 8 8 8 8 8 8 9 9 9 8 8 8 8 9 9 9 9 9 9 9 9 9 10 10
Wind_Speed
11 11 11 10 10 10 10 10 11 11 10 7 4 2 3 5 5 7 9 12 16 21 25 27 29 31 32 33 33 33 32 32 32 32 31 32 31 31
10 11 11 11 10 10 11 11 11 11 12 9 6 5 5 6 6 7 8 9 12 17 22 25 26 28 29 31 33 33 33 32 32 32 32 31 31 30
11 12 12 12 11 11 11 11 11 11 12 11 8 6 6 7 6 6 7 7 9 13 17 21 23 25 27 29 31 32 32 32 31 31 31 31 30 29
13 12 13 11 12 12 11 12 12 11 13 13 10 8 7 7 7 6 5 5 6 9 13 17 19 22 24 26 28 30 31 31 30 30 30 29 29 28
13 13 13 13 13 12 12 12 12 12 12 13 12 9 8 7 6 6 6 4 3 6 10 13 15 17 20 23 25 27 28 29 29 29 29 28 27 26
13 13 14 14 14 13 12 13 13 13 13 13 12 11 9 7 6 6 5 4 3 4 4 6 9 13 16 18 21 23 25 27 27 27 27 26 26 25
13 13 14 13 13 12 12 12 12 12 12 12 12 11 10 8 7 6 6 4 4 4 4 4 6 7 9 14 17 20 22 24 24 25 25 25 24 23
14 14 13 14 15 16 18 18 16 15 14 13 12 12 11 10 8 7 6 5 4 4 5 4 4 5 5 8 13 18 20 21 22 23 23 23 23 22
15 14 13 12 11 14 16 20 20 21 20 17 16 14 12 11 9 10 8 7 5 4 4 3 3 3 1 3 12 16 19 20 21 22 22 22 21 20
15 15 14 14 13 12 14 15 16 17 18 18 17 17 15 12 10 10 8 7 5 4 4 3 3 2 2 3 7 12 16 19 20 20 21 21 20 20
14 14 14 14 10 8 13 15 16 15 15 15 15 14 11 8 7 9 9 7 6 4 3 3 3 3 2 2 4 9 13 16 18 19 20 21 21 20
12 12 12 13 9 6 12 15 16 16 15 14 16 16 17 16 13 13 12 10 7 5 5 4 4 4 3 2 2 5 8 12 16 19 21 23 24 16
11 10 8 7 9 10 12 14 14 13 14 14 14 14 15 15 15 16 14 12 9 6 7 6 5 5 4 4 2 3 5 6 8 11 18 21 17 12
12 11 7 3 6 10 11 12 12 11 13 13 13 13 14 14 14 14 15 14 10 7 9 9 5 7 6 6 4 3 3 5 7 8 10 12 9 9
11 10 9 8 10 12 16 15 12 12 13 13 13 13 13 13 12 11 13 12 11 8 9 9 7 8 7 6 7 6 5 4 6 9 9 9 8 9
11 11 14 16 14 13 10 11 12 12 12 13 13 12 11 11 11 11 12 11 10 8 8 9 7 9 7 7 9 10 9 8 8 9 10 9 9 11
9 10 11 10 10 10 10 10 10 11 13 13 12 12 11 11 12 12 11 11 11 10 8 6 4 4 3 6 9 10 10 9 10 10 10 9 9 9
8 11 11 10 10 9 9 9 9 10 11 12 12 11 11 11 12 12 11 12 12 11 10 8 7 4 3 2 1 10 11 10 11 11 10 10 10 10
9 11 11 10 10 9 9 9 9 9 9 10 11 11 11 11 11 12 12 12 12 12 11 11 10 9 9 7 3 4 9 10 11 11 11 9 10 11
10 11 11 10 10 9 9 9 8 8 8 9 10 11 11 11 12 12 12 13 12 11 11 12 13 13 12 10 7 6 9 12 12 12 11 8 6 9
9 10 10 10 9 9 8 8 8 8 9 9 9 11 10 11 11 12 12 13 12 11 12 12 12 11 6 6 8 8 9 8 8 9 12 11 10 11
9 9 9 9 9 8 8 8 8 8 9 9 9 9 10 10 11 13 12 12 12 12 12 10 12 11 8 10 10 11 10 9 5 7 8 4 8 11
9 8 8 9 8 7 7 9 10 9 9 9 9 9 10 10 10 10 11 12 11 11 11 11 11 10 9 9 10 10 14 13 10 9 7 5 7 7
Wind_Direction
270 263 260 268 266 267 268 268 275 282 282 281 265 279 316 311 310 281 253 236 227 223 220 217 215 213 212 213 213 214 213 213 214 214 215 216 217 218
270 275 273 271 272 268 266 265 263 268 277 282 279 283 303 301 295 288 268 239 232 227 222 219 217 215 213 211 210 211 211 211 212 213 213 215 216 217
269 265 262 268 271 272 267 263 261 261 267 273 273 274 280 288 287 282 274 246 228 226 224 220 216 215 214 212 210 209 208 208 209 211 212 213 214 216
267 267 265 263 260 263 267 266 264 263 265 271 274 272 267 276 274 272 269 258 231 220 221 219 215 213 212 210 209 207 205 206 207 209 210 211 212 215
268 265 263 262 262 262 263 265 265 260 256 262 265 264 265 264 269 263 256 248 237 208 207 209 209 208 208 206 205 203 202 203 204 206 207 208 209 210
267 263 262 259 259 260 261 259 262 265 261 259 261 259 254 252 255 257 249 233 220 199 185 186 192 199 201 199 199 199 199 199 201 202 203 203 204 205
269 264 260 258 265 267 268 267 263 259 260 255 255 255 250 246 248 247 247 235 223 205 180 176 176 188 194 195 195 194 195 197 198 199 199 199 200 199
273 269 265 252 243 239 249 260 267 266 265 265 259 256 256 251 248 250 246 233 226 199 185 176 175 177 183 190 188 188 191 192 193 193 192 192 191 190
274 271 269 266 250 250 239 234 243 247 252 261 267 266 264 253 251 247 240 241 237 189 175 173 167 159 140 143 165 177 181 183 183 184 183 183 182 182
271 269 268 270 266 263 263 256 250 242 236 238 248 258 262 271 261 253 258 248 240 204 184 170 160 143 109 97 143 165 172 173 175 176 176 176 174 174
272 271 270 270 266 245 258 262 261 257 246 238 246 256 278 287 283 262 244 233 228 203 191 162 142 126 113 102 105 146 159 163 164 164 165 164 161 157
276 271 258 252 270 243 256 257 256 255 255 243 230 237 245 243 235 244 246 235 226 204 179 160 148 143 134 107 111 130 138 146 152 155 156 157 157 154
283 280 279 200 224 234 246 256 260 268 262 255 247 237 232 232 229 224 230 237 229 215 178 168 162 163 150 139 125 123 138 143 140 146 153 159 165 166
279 281 288 180 233 243 245 251 255 261 256 253 246 240 232 227 224 223 220 226 232 222 183 179 173 168 157 151 148 138 132 145 149 146 147 149 146 143
273 290 293 270 261 253 240 239 240 241 241 242 241 238 235 232 227 220 220 218 220 212 188 190 183 171 170 165 157 157 149 155 159 153 154 161 161 157
262 264 245 244 247 259 256 228 232 236 235 238 241 242 240 232 224 219 214 205 204 199 189 188 186 180 183 171 164 168 166 164 168 164 160 162 168 175
306 284 276 267 254 247 245 241 234 230 229 234 237 238 236 233 226 218 215 208 204 197 184 173 154 138 163 170 172 173 169 165 168 166 164 165 172 180
277 272 273 270 266 261 256 249 236 231 230 230 230 231 230 229 226 219 213 211 208 200 187 173 158 136 105 39 174 174 173 168 166 170 175 171 174 180
250 261 267 269 264 260 259 254 247 237 231 229 228 227 227 226 224 220 214 211 209 202 189 177 177 177 181 187 196 214 176 165 163 173 183 182 179 175
248 259 265 267 264 260 257 253 248 240 233 229 226 226 225 223 220 220 216 212 207 199 190 185 188 193 196 189 171 179 186 171 170 173 179 180 147 119
267 264 267 267 263 259 255 251 245 238 234 229 226 223 221 221 220 219 218 209 207 199 195 193 193 185 183 154 151 157 169 173 175 176 173 169 162 168
280 274 272 271 268 261 253 247 242 238 233 229 226 222 221 220 220 219 216 210 206 204 199 187 174 172 179 181 172 161 159 160 134 121 115 120 179 186
288 281 277 270 263 258 251 245 241 239 234 229 223 219 217 219 219 220 219 215 209 204 193 180 174 177 186 185 168 161 162 162 163 166 157 60 52 86
Height
1502 1502 1501 1501 1500 1500 1499 1499 1498 1495 1492 1491 1490 1488 1487 1486 1485 1486 1487 1490 1493 1497 1502 1507 1512 1517 1522 1527 1531 1536 1542 1547 1552 1557 1562 1566 1571 1574
1497 1496 1495 1496 1495 1495 1494 1494 1493 1492 1489 1488 1487 1486 1484 1483 1482 1482 1483 1484 1487 1491 1495 1500 1504 1509 1514 1519 1523 1529 1534 1539 1545 1550 1555 1560 1564 1568
1492 1492 1490 1490 1490 1490 1489 1489 1488 1488 1486 1484 1484 1482 1481 1480 1479 1479 1479 1480 1482 1485 1489 1492 1496 1501 1506 1511 1516 1521 1526 1532 1537 1542 1548 1553 1557 1562
1487 1487 1486 1485 1484 1484 1483 1483 1483 1482 1482 1480 1479 1479 1477 1476 1475 1475 1475 1476 1477 1479 1482 1486 1490 1494 1498 1503 1509 1514 1519 1525 1530 1535 1541 1546 1551 1555
1482 1481 1480 1480 1479 1479 1478 1478 1477 1477 1477 1476 1475 1474 1474 1473 1472 1471 1471 1472 1473 1474 1477 1480 1484 1487 1492 1496 1501 1507 1512 1518 1524 1529 1534 1540 1544 1549
1476 1475 1474 1474 1473 1473 1472 1472 1472 1472 1471 1471 1470 1470 1469 1469 1468 1468 1467 1468 1469 1470 1472 1475 1478 1481 1485 1490 1495 1500 1506 1511 1517 1523 1528 1533 1538 1543
1470 1469 1468 1467 1467 1466 1467 1467 1467 1466 1466 1466 1465 1465 1465 1465 1465 1464 1464 1464 1465 1466 1468 1470 1473 1476 1479 1484 1489 1494 1499 1505 1511 1516 1522 1527 1532 1536
1464 1463 1462 1461 1459 1459 1459 1459 1460 1460 1461 1461 1460 1460 1460 1461 1461 1461 1461 1461 1461 1463 1465 1467 1469 1472 1475 1478 1483 1488 1494 1499 1505 1510 1516 1521 1526 1531
1458 1457 1456 1456 1454 1453 1452 1451 1452 1452 1453 1454 1455 1455 1456 1457 1457 1457 1457 1457 1458 1459 1461 1463 1465 1468 1471 1474 1478 1483 1488 1494 1499 1504 1510 1515 1521 1525
1452 1450 1449 1448 1448 1447 1446 1446 1446 1446 1446 1446 1447 1448 1451 1452 1452 1453 1453 1454 1454 1456 1458 1459 1462 1464 1468 1470 1474 1479 1484 1489 1494 1499 1505 1510 1515 1520
1446 1444 1442 1441 1441 1439 1439 1439 1439 1439 1440 1440 1441 1442 1443 1445 1447 1449 1450 1451 1450 1451 1454 1456 1458 1462 1465 1467 1471 1476 1480 1485 1490 1495 1500 1506 1511 1516
1440 1438 1436 1434 1434 1432 1432 1432 1431 1432 1433 1434 1434 1434 1436 1438 1440 1442 1445 1446 1447 1448 1449 1453 1455 1459 1463 1465 1469 1473 1477 1482 1486 1491 1496 1501 1506 1511
1434 1432 1431 1428 1427 1425 1424 1424 1424 1425 1426 1427 1427 1428 1430 1432 1434 1436 1438 1441 1443 1444 1446 1449 1452 1456 1459 1462 1466 1470 1474 1478 1483 1487 1492 1498 1502 1507
1428 1427 1426 1423 1421 1419 1418 1417 1417 1417 1419 1420 1421 1422 1423 1425 1428 1430 1432 1435 1438 1440 1442 1445 1448 1451 1455 1459 1462 1467 1471 1476 1480 1484 1489 1493 1499 1503
1423 1421 1419 1417 1415 1413 1412 1411 1411 1411 1412 1413 1414 1415 1417 1420 1422 1424 1427 1429 1432 1435 1437 1441 1444 1447 1452 1455 1459 1463 1468 1472 1477 1481 1486 1491 1495 1500
1417 1415 1413 1411 1409 1407 1406 1405 1404 1405 1405 1407 1408 1410 1412 1414 1416 1418 1421 1424 1427 1430 1433 1436 1440 1444 1447 1452 1456 1460 1465 1469 1474 1479 1483 1488 1493 1497
1412 1410 1408 1406 1404 1402 1401 1400 1399 1399 1399 1400 1402 1404 1406 1408 1410 1413 1416 1419 1422 1425 1428 1432 1435 1439 1444 1448 1452 1457 1461 1466 1471 1475 1480 1485 1489 1494
1406 1404 1402 1400 1398 1397 1396 1394 1394 1393 1394 1395 1396 1398 1400 1402 1405 1407 1410 1413 1416 1420 1423 1426 1430 1435 1440 1444 1448 1452 1457 1462 1467 1472 1477 1482 1486 1490
1400 1398 1396 1394 1393 1391 1390 1389 1389 1388 1388 1389 1391 1393 1395 1397 1400 1402 1405 1408 1411 1414 1418 1421 1425 1430 1434 1439 1443 1449 1453 1457 1462 1468 1473 1479 1483 1487
1394 1393 1391 1389 1387 1386 1385 1384 1384 1384 1384 1384 1386 1387 1389 1392 1394 1397 1400 1402 1406 1409 1413 1416 1419 1424 1429 1435 1439 1444 1449 1453 1458 1463 1469 1475 1480 1483
1390 1387 1385 1384 1382 1381 1380 1379 1379 1379 1379 1380 1381 1382 1384 1387 1389 1392 1395 1398 1401 1404 1407 1410 1415 1421 1427 1431 1435 1439 1444 1450 1455 1460 1465 1470 1474 1478
1385 1382 1380 1378 1377 1376 1375 1375 1375 1375 1375 1375 1377 1378 1380 1382 1385 1387 1390 1393 1396 1399 1403 1407 1411 1416 1421 1425 1429 1434 1439 1445 1450 1456 1462 1466 1470 1474
1380 1377 1375 1373 1372 1372 1371 1371 1371 1371 1371 1372 1373 1374 1376 1378 1380 1383 1386 1388 1391 1395 1399 1402 1406 1411 1416 1421 1425 1429 1434 1440 1445 1451 1457 1462 1466 1471